Location: Wildlife_Club
(35.6000°N, 81.4330°W)
Time: 20:13:14
(UTC-04:00)

Iridium 56 - Visible Passes

Search period start: 16 October 2017 00:00
Search period end: 26 October 2017 00:00
Orbit: 776 x 779 km, 86.4° (Epoch: 16 October)

Date Brightness Start Highest point End Pass type
(mag) Time Alt. Az. Time Alt. Az. Time Alt. Az.
16 Oct 6.9 20:21:34 10° SSW 20:26:26 40° W 20:31:19 10° NNW visible
17 Oct 6.8 06:54:20 10° NNE 06:59:21 45° E 07:04:19 10° SSE visible
17 Oct 5.7 19:47:38 10° S 19:52:50 77° W 19:58:04 10° N visible
18 Oct 8.0 06:21:28 10° NNE 06:25:40 24° E 06:29:49 10° SE visible
18 Oct 5.6 19:14:19 10° SSE 19:19:22 55° E 19:24:28 10° NNE visible
18 Oct 8.6 20:57:41 10° WSW 21:00:26 14° WNW 21:03:10 10° NW visible
19 Oct 8.7 05:49:39 10° NE 05:51:51 12° ENE 05:54:01 10° E visible
19 Oct 7.7 20:22:15 10° SW 20:26:38 27° W 20:31:02 10° NNW visible
20 Oct 6.0 06:54:17 10° N 06:59:29 68° E 07:04:40 10° S visible
20 Oct 6.5 19:47:54 10° SSW 19:52:58 51° W 19:58:03 10° N visible
21 Oct 7.3 06:21:06 10° NNE 06:25:53 35° E 06:30:37 10° SSE visible
21 Oct 5.5 19:14:14 10° S 19:19:25 82° E 19:24:39 10° N visible
22 Oct 8.3 05:48:30 10° NE 05:52:08 19° ENE 05:55:45 10° ESE visible
22 Oct 8.3 20:23:18 10° WSW 20:26:53 18° WNW 20:30:28 10° NW visible
23 Oct 5.5 06:54:21 10° N 06:59:35 81° W 07:04:47 10° S visible
23 Oct 7.3 19:48:25 10° SSW 19:53:08 35° W 19:57:53 10° NNW visible
24 Oct 6.4 06:20:57 10° N 06:26:03 52° E 06:31:07 10° SSE visible
24 Oct 6.0 19:14:22 10° S 19:19:31 67° W 19:24:44 10° N visible
25 Oct 7.6 05:47:57 10° NNE 05:52:23 27° E 05:56:47 10° SE visible
25 Oct 8.7 20:25:05 10° W 20:27:10 12° WNW 20:29:16 10° NW visible
